Toledo Metcalf, OH

12:55 AM EDT on August 18, 2017 (GMT -0400)
Metcalf

Weather History for KTDZ - December, 2012

Change the Weather History Date:

Wednesday, December 12, 2012

  Actual Average (KTOL) Record (KTOL)
Temperature  
Mean Temperature 34 °F -  
Max Temperature 42 °F 39 °F 66 °F (2015)
Min Temperature 25 °F 23 °F -9 °F (1962)
Degree Days  
Heating Degree Days 31    
Moisture  
Dew Point 24 °F    
Average Humidity 74    
Maximum Humidity 85    
Minimum Humidity 53    
Precipitation  
Precipitation 0.00 in - - ()
Sea Level Pressure  
Sea Level Pressure 30.36 in    
Wind  
Wind Speed 8 mph (SSW)    
Max Wind Speed 12 mph    
Max Gust Speed -    
Visibility 10 miles    
Events      
Averages and records for this station are not official NWS values.
T = Trace of Precipitation, MM = Missing Value Source: NWS Daily Summary

Daily Weather History Graph

Daily Weather History Graph

Search for Another Location

Airport or City:

Trip Planner

Search our weather history database for the weather conditions in past years. The results will help you decide how hot, cold, wet, or windy it might be!

Date:

Astronomy

Dec. 12, 2012 Rise Set
Actual Time 7:51 AM EST 5:04 PM EST
Civil Twilight 7:20 AM EST 5:35 PM EST
Nautical Twilight 6:45 AM EST 6:10 PM EST
Astronomical Twilight 6:11 AM EST 6:44 PM EST
Moon 6:54 AM EST (12/12) 4:40 PM EST (12/12)
Length of Visible Light 10h 15m
Length of Day
9h 12m
Waning Crescent, 1% of the Moon is Illuminated
Dec 12
Waning Crescent
Dec 13
New
Dec 20
First Quarter
Dec 28
Full
Jan 4
Last Quarter

Hourly Weather History & Observations

Time (EST) Temp. Windchill Dew Point Humidity Pressure Visibility Wind Dir Wind Speed Gust Speed Precip Events Conditions
12:53 AM 28.0 °F 20.0 °F 21.9 °F 78% 30.23 in 10.0 mi SW 8.1 mph - N/A   Clear
1:53 AM 28.0 °F 20.0 °F 21.9 °F 78% 30.25 in 10.0 mi SSW 8.1 mph - N/A   Clear
2:53 AM 27.0 °F 18.7 °F 21.9 °F 81% 30.27 in 10.0 mi SSW 8.1 mph - N/A   Clear
3:53 AM 27.0 °F 18.7 °F 21.9 °F 81% 30.28 in 10.0 mi SSW 8.1 mph - N/A   Clear
4:53 AM 27.0 °F 20.5 °F 21.9 °F 81% 30.29 in 9.0 mi SW 5.8 mph - N/A   Clear
5:53 AM 26.1 °F 18.4 °F 21.9 °F 84% 30.31 in 9.0 mi SW 6.9 mph - N/A   Clear
6:53 AM 26.1 °F 19.4 °F 21.0 °F 81% 30.33 in 9.0 mi SSW 5.8 mph - N/A   Clear
7:53 AM 26.1 °F 17.6 °F 21.9 °F 84% 30.35 in 8.0 mi SSW 8.1 mph - N/A   Clear
8:53 AM 28.0 °F 18.6 °F 23.0 °F 81% 30.35 in 7.0 mi SSW 10.4 mph - N/A   Clear
9:53 AM 30.9 °F 22.2 °F 24.1 °F 76% 30.38 in 9.0 mi SW 10.4 mph - N/A   Clear
10:53 AM 34.0 °F 25.5 °F 26.1 °F 73% 30.39 in 10.0 mi SW 11.5 mph - N/A   Clear
11:53 AM 37.0 °F 29.3 °F 26.1 °F 65% 30.40 in 10.0 mi WSW 11.5 mph - N/A   Clear
12:53 PM 39.0 °F 32.3 °F 27.0 °F 62% 30.38 in 10.0 mi SW 10.4 mph - N/A   Clear
1:53 PM 41.0 °F 35.2 °F 27.0 °F 57% 30.38 in 10.0 mi WSW 9.2 mph - N/A   Clear
2:53 PM 42.1 °F 37.7 °F 26.1 °F 53% 30.37 in 10.0 mi SSW 6.9 mph - N/A   Clear
3:53 PM 41.0 °F 35.2 °F 26.1 °F 55% 30.37 in 10.0 mi SSW 9.2 mph - N/A   Clear
4:53 PM 37.0 °F 33.3 °F 26.1 °F 65% 30.38 in 10.0 mi SSW 4.6 mph - N/A   Clear
5:53 PM 33.1 °F 28.7 °F 25.0 °F 72% 30.39 in 10.0 mi South 4.6 mph - N/A   Clear
6:53 PM 32.0 °F 27.5 °F 25.0 °F 75% 30.40 in 10.0 mi South 4.6 mph - N/A   Clear
7:53 PM 30.9 °F 27.5 °F 25.0 °F 79% 30.41 in 10.0 mi South 3.5 mph - N/A   Clear
8:53 PM 28.9 °F 23.9 °F 23.0 °F 78% 30.41 in 10.0 mi SSE 4.6 mph - N/A   Clear
9:53 PM 28.0 °F 21.7 °F 21.9 °F 78% 30.41 in 10.0 mi SSE 5.8 mph - N/A   Clear
10:53 PM 27.0 °F 20.5 °F 21.9 °F 81% 30.42 in 10.0 mi South 5.8 mph - N/A   Clear
11:53 PM 25.0 °F 17.1 °F 21.0 °F 85% 30.42 in 10.0 mi South 6.9 mph - N/A   Clear